[[{"header":{"parameterUnit":"m.s-1","parameterCategory":1,"la1":30.2991,"la2":30.254,"lo1":-89.0895,"lo2":-89.0444,"dy":0.0017,"dx":0.0017,"nx":28,"ny":28,"refTime":"2024-07-23T21:00:00:Z","depth":0,"parameterNumber":2,"parameterNumberName":"U-component_of_WINDS"},"data":[0,0,0,0,0,0,0,0,0,0,0,0,0,0,0,0,0,0,0,0,0,0,0,0,0,0,0,0,0,0,0,0,0,0,0,0,0,0,0,0,0,0,0,0,0,0,0,0,0,0,0,0,0,0,0,0,0,0,0.3862,0.3863,0,0.3969,0.3971,0.3972,0.4059,0.406,0.4061,0.4062,0.4173,0.4175,0.4177,0,0,0,0,0,0,0,0,0,0,0,0,0,0.3731,0.3733,0.3862,0.3863,0.3864,0.3969,0.3971,0.3972,0.4059,0.406,0.4061,0.4062,0.4172,0.4175,0.4177,0,0,0,0,0,0,0,0,0,0,0,0,0,0.3808,0.3733,0.3861,0.392,0.3927,0.3969,0.3971,0.3973,0.4059,0.406,0.4061,0.4063,0.4171,0.4174,0.4177,0.417,0,0,0.4187,0.4189,0,0,0,0,0,0,0,0,0.3803,0.3813,0.391,0.3916,0.3923,0.4002,0.3965,0.4039,0.4058,0.4009,0.4062,0.4063,0.4115,0.4123,0.414,0.4176,0.418,0.4187,0.4189,0.4191,0.4192,0,0,0,0,0,0,0,0.3798,0.3808,0.3904,0.3911,0.392,0.3941,0.3954,0.398,0.4053,0.4013,0.402,0.4031,0.4119,0.4137,0.4143,0.4182,0.4187,0.419,0.4192,0.4193,0.4216,0.4215,0,0,0,0,0,0,0.3783,0.3803,0.3901,0.3908,0.3865,0.3942,0.3956,0.3976,0.4053,0.4066,0.403,0.4035,0.4131,0.414,0.4148,0.4144,0.4191,0.4194,0.4196,0.4217,0.4216,0.4214,0,0,0,0,0,0,0.378,0.3791,0.3897,0.3857,0.3872,0.3943,0.3964,0.3977,0.3995,0.4066,0.4079,0.4035,0.4132,0.4143,0.4164,0.4149,0.4195,0.4198,0.4219,0.4217,0.4215,0.4136,0,0,0,0,0,0,0.3776,0.379,0.3788,0.3857,0.3874,0.3911,0.3963,0.3978,0.4,0.4008,0.4074,0.4086,0.4134,0.4159,0.4167,0.4154,0.4201,0.4221,0.4218,0.4216,0.414,0.4132,0.4124,0,0,0,0,0,0.3771,0.3761,0.3787,0.3798,0.3873,0.391,0.392,0.3975,0.3999,0.3997,0.4042,0.4084,0.4149,0.416,0.417,0.4158,0.4222,0.4219,0.4216,0.4144,0.4133,0.4124,0,0,0,0,0,0,0.3689,0.3772,0.3801,0.3813,0.3854,0.3924,0.3924,0.3962,0.3997,0.4002,0.4069,0.4084,0.4097,0.413,0.414,0.4155,0.4191,0.419,0.4133,0.4123,0.4115,0.4107,0.4203,0,0,0,0,0,0.3672,0.3695,0.3766,0.377,0.3789,0.3852,0.3871,0.3909,0.3954,0.3972,0.4019,0.406,0.409,0.4109,0.414,0.4146,0.4161,0.4142,0.4134,0.4127,0.4125,0.4129,0.4122,0.4205,0.4205,0.4205,0,0,0.3638,0.3686,0.3696,0.3755,0.3791,0.3812,0.3866,0.3887,0.3904,0.3975,0.3997,0.4033,0.4084,0.4096,0.4105,0.4124,0.4106,0.4123,0.4117,0.4119,0.4126,0.4118,0.4111,0.4203,0.4203,0.4203,0,0,0.3587,0.3625,0.3633,0.3667,0.3721,0.3763,0.3765,0.383,0.3856,0.3879,0.3933,0.3954,0.4004,0.4038,0.4062,0.4022,0.4061,0.4031,0.3988,0.3992,0.3985,0.398,0.3965,0.3958,0.4029,0.4028,0.4028,0,0.3537,0.3572,0.3631,0.3649,0.3673,0.3738,0.3745,0.3776,0.3837,0.3852,0.3874,0.3937,0.3977,0.3997,0.3987,0.4005,0.4008,0.4023,0.3981,0.3976,0.3972,0.3958,0.3953,0.4024,0.4025,0.4025,0.4026,0,0.3508,0.3532,0.3531,0.3588,0.3612,0.3624,0.3685,0.3702,0.3739,0.3779,0.3801,0.385,0.3892,0.39,0.3937,0.3926,0.3937,0.3969,0.4006,0.3959,0.3947,0.3943,0.4018,0.402,0.4021,0.4022,0,0,0.3408,0.3497,0.3496,0.3522,0.3586,0.3605,0.362,0.3661,0.3674,0.3714,0.3728,0.3768,0.3798,0.3825,0.3866,0.3869,0.3833,0.3901,0.3903,0.3885,0.3823,0.3798,0.3791,0.386,0.3859,0.3858,0.3819,0,0.3366,0.3397,0.345,0.3464,0.3485,0.3547,0.356,0.3601,0.3638,0.3662,0.3704,0.3732,0.3769,0.3786,0.3792,0.3836,0.3821,0.384,0.3873,0.3873,0.3857,0.3785,0.3759,0.3719,0.3814,0.3814,0.3813,0,0.3321,0.3357,0.3372,0.3434,0.3445,0.3456,0.3497,0.3519,0.3566,0.3593,0.3623,0.3667,0.3686,0.372,0.3747,0.3758,0.3775,0.3798,0.3798,0.3803,0.3839,0.3787,0.3708,0.3701,0.3807,0.3807,0.3808,0,0.3245,0.3297,0.3313,0.3334,0.3406,0.3412,0.3442,0.3491,0.3511,0.3548,0.3562,0.36,0.362,0.3648,0.3701,0.3722,0.3721,0.3761,0.3744,0.3742,0.3741,0.374,0.3662,0.3752,0.3752,0.3753,0.3753,0,0.3192,0.3199,0.328,0.3289,0.3298,0.336,0.3367,0.3403,0.3445,0.3462,0.3519,0.3534,0.3603,0.3626,0.3668,0.3683,0.3692,0.3714,0.3725,0.3709,0.3705,0.372,0.3723,0.3751,0.3751,0.3752,0.3752,0,0.3108,0.3163,0.3184,0.3251,0.3268,0.3271,0.3328,0.3339,0.338,0.3401,0.341,0.3474,0.3504,0.356,0.3606,0.3634,0.3639,0.3659,0.3623,0.363,0.3609,0.361,0.3537,0.353,0.3626,0.3625,0.3624,0,0.307,0.3077,0.3144,0.316,0.3188,0.3212,0.3234,0.3295,0.3314,0.3368,0.3372,0.3407,0.3437,0.3482,0.3532,0.3567,0.3588,0.356,0.3593,0.3576,0.3586,0.3584,0.3585,0.3552,0.355,0.3549,0.3548,0,0.2997,0.3023,0.3052,0.309,0.3114,0.3147,0.3183,0.3192,0.3261,0.328,0.3312,0.3335,0.3381,0.3414,0.3457,0.3488,0.3529,0.3537,0.3535,0.3518,0.3496,0.3507,0.3601,0.3539,0.354,0.354,0.3541,0.3541,0.2934,0.2943,0.2991,0.3021,0.3054,0.3086,0.31,0.3142,0.3169,0.3211,0.3246,0.3274,0.332,0.3381,0.3409,0.3432,0.3452,0.3449,0.3448,0.3446,0.3438,0.3493,0.344,0.344,0.3441,0.3441,0.3441,0,0.2863,0.2897,0.2924,0.2972,0.2995,0.3032,0.3074,0.309,0.3114,0.3154,0.3183,0.3218,0.325,0.3303,0.3339,0.3346,0.3366,0.3354,0.3353,0.336,0.3419,0.3417,0.3337,0.3337,0.3337,0.3337,0.3337,0.3337,0.2828,0.2844,0.2876,0.2908,0.2943,0.297,0.299,0.302,0.3052,0.3088,0.3115,0.315,0.3194,0.3234,0.3265,0.328,0.329,0.3271,0.3291,0.3346,0.3356,0.3365,0.3363,0.3273,0.3273,0.323,0.3229,0.3229]},{"header":{"parameterUnit":"m.s-1","parameterCategory":1,"la1":30.2991,"la2":30.254,"lo1":-89.0895,"lo2":-89.0444,"dy":0.0017,"dx":0.0017,"nx":28,"ny":28,"refTime":"2024-07-23T21:00:00:Z","depth":0,"parameterNumber":3,"parameterNumberName":"V-component_of_WINDS"},"data":[0,0,0,0,0,0,0,0,0,0,0,0,0,0,0,0,0,0,0,0,0,0,0,0,0,0,0,0,0,0,0,0,0,0,0,0,0,0,0,0,0,0,0,0,0,0,0,0,0,0,0,0,0,0,0,0,0,0,2.2755,2.2755,0,2.2765,2.2765,2.2765,2.2796,2.2797,2.2798,2.2798,2.2806,2.2806,2.2805,0,0,0,0,0,0,0,0,0,0,0,0,0,2.2759,2.2759,2.2754,2.2755,2.2755,2.2765,2.2765,2.2765,2.2796,2.2797,2.2798,2.2799,2.2806,2.2806,2.2805,0,0,0,0,0,0,0,0,0,0,0,0,0,2.2762,2.2759,2.2754,2.2772,2.2773,2.2765,2.2765,2.2765,2.2796,2.2797,2.2798,2.2799,2.2807,2.2806,2.2805,2.278,0,0,2.2803,2.2803,0,0,0,0,0,0,0,0,2.2762,2.2762,2.2769,2.277,2.2772,2.278,2.2769,2.277,2.2796,2.2787,2.2799,2.28,2.2797,2.2797,2.2796,2.278,2.2781,2.2803,2.2803,2.2803,2.2802,0,0,0,0,0,0,0,2.2761,2.2761,2.2758,2.2769,2.2771,2.2778,2.2779,2.277,2.2786,2.2788,2.2791,2.2791,2.2798,2.2797,2.2797,2.2781,2.2803,2.2803,2.2802,2.2802,2.2742,2.2741,0,0,0,0,0,0,2.2759,2.2761,2.2758,2.2759,2.277,2.2777,2.2779,2.2777,2.2786,2.2789,2.279,2.2793,2.2798,2.2798,2.2797,2.2766,2.2803,2.2802,2.2802,2.2743,2.2742,2.274,0,0,0,0,0,0,2.2759,2.2759,2.2758,2.2761,2.2761,2.2776,2.2773,2.2776,2.2776,2.2788,2.2791,2.2787,2.2798,2.2798,2.2784,2.2767,2.2802,2.2801,2.2745,2.2743,2.2741,2.2706,0,0,0,0,0,0,2.2759,2.2759,2.275,2.276,2.2761,2.2745,2.2772,2.2776,2.2775,2.2778,2.2785,2.2787,2.2799,2.2784,2.2783,2.2767,2.28,2.2746,2.2744,2.2742,2.2708,2.2703,2.2698,0,0,0,0,0,2.2759,2.2739,2.2749,2.2749,2.275,2.2744,2.2744,2.2759,2.2773,2.2764,2.2771,2.2787,2.2769,2.2783,2.2781,2.2765,2.2747,2.2744,2.2742,2.271,2.2704,2.2698,0,0,0,0,0,0,2.2726,2.2741,2.2752,2.2735,2.2738,2.2749,2.2738,2.2752,2.275,2.2753,2.2771,2.2772,2.2754,2.2758,2.2773,2.2739,2.2761,2.2758,2.2737,2.2731,2.2726,2.2725,2.28,0,0,0,0,0,2.2717,2.2712,2.2725,2.2708,2.2709,2.2723,2.2721,2.2732,2.2736,2.2737,2.2743,2.2745,2.274,2.2736,2.2732,2.2709,2.271,2.2697,2.2692,2.2688,2.2684,2.267,2.2664,2.2732,2.2732,2.2732,0,0,2.2698,2.2705,2.2701,2.2702,2.2705,2.2698,2.2724,2.2716,2.271,2.2735,2.2722,2.2726,2.273,2.271,2.2702,2.2713,2.2666,2.2684,2.2681,2.268,2.2667,2.2661,2.2655,2.273,2.273,2.273,0,0,2.2659,2.2665,2.2651,2.2654,2.2659,2.2668,2.2665,2.2674,2.2678,2.2665,2.2683,2.2676,2.2667,2.2668,2.2667,2.2627,2.264,2.2625,2.2598,2.2584,2.2579,2.2574,2.2558,2.2552,2.2622,2.2622,2.2622,0,2.2634,2.2625,2.2642,2.2632,2.2631,2.2654,2.2639,2.2641,2.2644,2.2642,2.2655,2.2643,2.2647,2.2627,2.2617,2.2616,2.2611,2.2624,2.2579,2.2574,2.257,2.2555,2.2549,2.262,2.262,2.262,2.2621,0,2.2593,2.2586,2.2574,2.2577,2.2575,2.2562,2.2576,2.2572,2.2583,2.259,2.2575,2.2581,2.2577,2.2574,2.2584,2.2555,2.2561,2.2576,2.2597,2.2561,2.2547,2.2541,2.2617,2.2618,2.2618,2.2619,0,0,2.2533,2.2545,2.254,2.2541,2.2548,2.2542,2.253,2.2527,2.2522,2.2523,2.2512,2.2503,2.2517,2.2516,2.2527,2.2515,2.248,2.2531,2.2531,2.252,2.2445,2.2433,2.2426,2.2489,2.2488,2.2488,2.2444,0,2.2495,2.2476,2.249,2.2468,2.246,2.2482,2.2471,2.2473,2.2479,2.2473,2.248,2.2473,2.2492,2.2491,2.248,2.2486,2.2465,2.249,2.2477,2.2477,2.2475,2.2419,2.2406,2.2365,2.2439,2.2438,2.2437,0,2.2448,2.2447,2.2423,2.243,2.2428,2.2418,2.2415,2.241,2.2412,2.2417,2.2415,2.2429,2.2416,2.2438,2.2419,2.2435,2.2431,2.2433,2.2432,2.243,2.2454,2.2414,2.2352,2.2345,2.2429,2.243,2.243,0,2.2404,2.2397,2.2382,2.2382,2.239,2.2382,2.2385,2.2388,2.2385,2.2383,2.238,2.2376,2.2374,2.2369,2.2381,2.2396,2.2359,2.2383,2.2362,2.2361,2.2352,2.2352,2.2287,2.2352,2.2352,2.2352,2.2352,0,2.2359,2.2343,2.2362,2.2353,2.2335,2.2352,2.2333,2.2338,2.2341,2.2331,2.235,2.234,2.2357,2.2348,2.2357,2.2338,2.2338,2.234,2.2342,2.2338,2.2337,2.2334,2.2336,2.235,2.2351,2.2351,2.2351,0,2.2307,2.2319,2.2304,2.2313,2.2314,2.2301,2.2308,2.2298,2.2306,2.2293,2.2291,2.2303,2.2294,2.2305,2.2297,2.2302,2.2277,2.2284,2.2276,2.2278,2.2255,2.2256,2.2185,2.2175,2.2247,2.2247,2.2246,0,2.2277,2.2265,2.2272,2.2268,2.227,2.2262,2.2259,2.2274,2.2269,2.227,2.226,2.2253,2.2247,2.2232,2.2238,2.2231,2.2238,2.2213,2.2237,2.2232,2.2235,2.2235,2.2233,2.2208,2.2207,2.2206,2.2206,0,2.2221,2.2227,2.2222,2.2219,2.2214,2.2212,2.2211,2.2206,2.2222,2.2215,2.2207,2.2203,2.2194,2.2186,2.2181,2.2182,2.2195,2.2198,2.2193,2.2187,2.2182,2.2182,2.2261,2.2199,2.22,2.2201,2.2201,2.2201,2.2177,2.2167,2.2171,2.2164,2.2165,2.2163,2.2155,2.2161,2.2154,2.2149,2.2158,2.2146,2.2147,2.2141,2.2141,2.2131,2.2141,2.2134,2.2132,2.2129,2.2125,2.2185,2.213,2.2131,2.2131,2.2131,2.2131,0,2.2121,2.2124,2.2118,2.2116,2.211,2.2124,2.2124,2.2117,2.2107,2.2107,2.2101,2.209,2.2082,2.2087,2.208,2.207,2.2076,2.2068,2.2068,2.2067,2.2117,2.2122,2.2063,2.2063,2.2063,2.2063,2.2063,2.2063,2.2091,2.2074,2.208,2.2064,2.2067,2.2056,2.2054,2.2052,2.2052,2.2038,2.2032,2.2036,2.2037,2.203,2.2022,2.2024,2.2019,2.2008,2.2012,2.2058,2.2064,2.207,2.2075,2.2007,2.2007,2.1963,2.1962,2.1962]}]]